Tiempo cada hora Barrancas

Hoy, 1 Marzo, Lunes

Tiempo Temperatura Precipitaciones Viento Presión Humedad
00:00 +22°C° 0 mm 3 mps 720 mmHg 73%
01:00 +21°C° 0 mm 3 mps 720 mmHg 75%
02:00 +20°C° 0 mm 2 mps 720 mmHg 78%
03:00 +20°C° 0 mm 2 mps 720 mmHg 80%
04:00 +19°C° 0 mm 2 mps 719 mmHg 82%
05:00 +20°C° 0 mm 2 mps 720 mmHg 79%
06:00 +20°C° 0 mm 2 mps 720 mmHg 77%
07:00 +21°C° 0 mm 2 mps 721 mmHg 74%
08:00 +25°C° 0 mm 3 mps 721 mmHg 62%
09:00 +28°C° 0 mm 3 mps 722 mmHg 51%
10:00 +32°C° 0 mm 4 mps 723 mmHg 39%
11:00 +33°C° 0 mm 4 mps 722 mmHg 36%
12:00 +35°C° 0 mm 4 mps 721 mmHg 33%
13:00 +36°C° 0 mm 4 mps 720 mmHg 31%
14:00 +35°C° 0 mm 4 mps 720 mmHg 32%
15:00 +34°C° 0 mm 4 mps 719 mmHg 34%
16:00 +33°C° 0 mm 5 mps 719 mmHg 36%
17:00 +30°C° 0 mm 4 mps 719 mmHg 43%
18:00 +28°C° 0 mm 4 mps 719 mmHg 50%
19:00 +26°C° 0 mm 4 mps 720 mmHg 57%
20:00 +25°C° 0 mm 4 mps 720 mmHg 62%
21:00 +23°C° 0 mm 4 mps 721 mmHg 66%
22:00 +22°C° 0 mm 3 mps 721 mmHg 71%
23:00 +22°C° 0 mm 3 mps 721 mmHg 75%

Mañana, 2 Marzo, Martes

Tiempo Temperatura Precipitaciones Viento Presión Humedad
00:00 +21°C° 0 mm 3 mps 720 mmHg 79%
01:00 +20°C° 0 mm 2 mps 720 mmHg 83%
02:00 +19°C° 0 mm 2 mps 720 mmHg 83%
03:00 +19°C° 0 mm 2 mps 720 mmHg 84%
04:00 +19°C° 0 mm 2 mps 720 mmHg 85%
05:00 +19°C° 0 mm 2 mps 720 mmHg 81%
06:00 +20°C° 0 mm 2 mps 721 mmHg 77%
07:00 +20°C° 0 mm 2 mps 721 mmHg 73%
08:00 +24°C° 0 mm 2 mps 722 mmHg 57%
09:00 +28°C° 0 mm 2 mps 722 mmHg 41%
10:00 +31°C° 0 mm 3 mps 723 mmHg 25%
11:00 +33°C° 0 mm 3 mps 722 mmHg 23%
12:00 +35°C° 0 mm 3 mps 722 mmHg 20%
13:00 +36°C° 0 mm 3 mps 721 mmHg 17%
14:00 +35°C° 0 mm 4 mps 720 mmHg 22%
15:00 +34°C° 0 mm 5 mps 720 mmHg 27%
16:00 +33°C° 0 mm 6 mps 719 mmHg 32%
17:00 +30°C° 0 mm 5 mps 720 mmHg 40%
18:00 +28°C° 0 mm 4 mps 720 mmHg 48%
19:00 +25°C° 0 mm 4 mps 720 mmHg 57%
20:00 +25°C° 0 mm 3 mps 721 mmHg 58%
21:00 +24°C° 0 mm 3 mps 721 mmHg 59%
22:00 +23°C° 0 mm 2 mps 721 mmHg 60%
23:00 +21°C° 0 mm 2 mps 721 mmHg 62%

Pasado mañana, 3 Marzo, Miércoles

Tiempo Temperatura Precipitaciones Viento Presión Humedad
00:00 +20°C° 0 mm 2 mps 721 mmHg 64%
01:00 +20°C° 0 mm 2 mps 720 mmHg 67%
02:00 +19°C° 0 mm 2 mps 720 mmHg 65%
03:00 +19°C° 0 mm 2 mps 720 mmHg 63%
04:00 +19°C° 0 mm 2 mps 720 mmHg 62%
05:00 +20°C° 0 mm 2 mps 720 mmHg 61%
06:00 +20°C° 0 mm 2 mps 721 mmHg 60%
07:00 +21°C° 0 mm 2 mps 722 mmHg 59%
08:00 +25°C° 0 mm 2 mps 722 mmHg 49%
09:00 +28°C° 0 mm 2 mps 723 mmHg 39%
10:00 +32°C° 0 mm 2 mps 723 mmHg 29%
11:00 +34°C° 0 mm 2 mps 722 mmHg 26%
12:00 +35°C° 0 mm 2 mps 722 mmHg 24%
13:00 +36°C° 0 mm 2 mps 721 mmHg 22%
14:00 +35°C° 0 mm 3 mps 721 mmHg 26%
15:00 +34°C° 0 mm 4 mps 720 mmHg 30%
16:00 +33°C° 0 mm 5 mps 719 mmHg 34%
17:00 +30°C° 0 mm 4 mps 719 mmHg 42%
18:00 +27°C° 0 mm 3 mps 720 mmHg 49%
19:00 +25°C° 0 mm 2 mps 720 mmHg 57%
20:00 +25°C° 0 mm 2 mps 720 mmHg 58%
21:00 +24°C° 0 mm 2 mps 721 mmHg 60%
22:00 +24°C° 0 mm 2 mps 721 mmHg 61%
23:00 +23°C° 0 mm 2 mps 721 mmHg 62%

4 Marzo, Jueves

Tiempo Temperatura Precipitaciones Viento Presión Humedad
00:00 +23°C° 0 mm 2 mps 721 mmHg 63%
01:00 +21°C° 0 mm 2 mps 720 mmHg 64%
02:00 +21°C° 0 mm 2 mps 720 mmHg 64%
03:00 +22°C° 0 mm 1 mps 720 mmHg 65%
04:00 +21°C° 0 mm 1 mps 720 mmHg 65%
05:00 +22°C° 0 mm 1 mps 720 mmHg 64%
06:00 +23°C° 0 mm 1 mps 721 mmHg 63%
07:00 +23°C° 0 mm 1 mps 721 mmHg 61%
08:00 +26°C° 0 mm 1 mps 722 mmHg 54%
09:00 +30°C° 0 mm 1 mps 722 mmHg 46%
10:00 +33°C° 0 mm 1 mps 723 mmHg 38%
11:00 +33°C° 0 mm 1 mps 722 mmHg 36%
12:00 +34°C° 0 mm 1 mps 721 mmHg 34%
13:00 +36°C° 0 mm 2 mps 720 mmHg 32%
14:00 +35°C° 0 mm 3 mps 720 mmHg 36%
15:00 +33°C° 0 mm 4 mps 719 mmHg 40%
16:00 +32°C° 0 mm 5 mps 719 mmHg 44%
17:00 +29°C° 0 mm 4 mps 719 mmHg 54%
18:00 +27°C° 0 mm 3 mps 719 mmHg 63%
19:00 +25°C° 0 mm 3 mps 719 mmHg 72%
20:00 +25°C° 0 mm 2 mps 720 mmHg 74%
21:00 +25°C° 0 mm 2 mps 720 mmHg 75%
22:00 +24°C° 0 mm 2 mps 721 mmHg 76%
23:00 +24°C° 0 mm 2 mps 720 mmHg 76%

5 Marzo, Viernes

Tiempo Temperatura Precipitaciones Viento Presión Humedad
00:00 +24°C° 0 mm 2 mps 720 mmHg 77%
01:00 +24°C° 0 mm 2 mps 719 mmHg 77%
02:00 +23°C° 0 mm 1 mps 719 mmHg 78%
03:00 +23°C° 0 mm 1 mps 719 mmHg 79%
04:00 +22°C° 0 mm 1 mps 719 mmHg 80%
05:00 +23°C° 0 mm 1 mps 719 mmHg 77%
06:00 +24°C° 0 mm 1 mps 720 mmHg 75%
07:00 +24°C° 0 mm 1 mps 720 mmHg 72%
08:00 +27°C° 0 mm 1 mps 721 mmHg 62%
09:00 +30°C° 0 mm 1 mps 721 mmHg 52%
10:00 +31°C° 0 mm 0 mps 722 mmHg 42%
11:00 +33°C° 0 mm 1 mps 721 mmHg 41%
12:00 +33°C° 0 mm 1 mps 720 mmHg 40%
13:00 +33°C° 0 mm 1 mps 719 mmHg 39%
14:00 +34°C° 0 mm 2 mps 719 mmHg 42%
15:00 +32°C° 0 mm 2 mps 718 mmHg 44%
16:00 +33°C° 0 mm 3 mps 718 mmHg 46%
17:00 +30°C° 0 mm 3 mps 718 mmHg 52%
18:00 +28°C° 0 mm 3 mps 718 mmHg 59%
19:00 +27°C° 0 mm 2 mps 718 mmHg 65%
20:00 +26°C° 0 mm 2 mps 719 mmHg 70%
21:00 +25°C° 0 mm 2 mps 719 mmHg 74%
22:00 +25°C° 0 mm 2 mps 720 mmHg 79%
23:00 +25°C° 0 mm 2 mps 719 mmHg 79%

6 Marzo, Sábado

Tiempo Temperatura Precipitaciones Viento Presión Humedad
00:00 +25°C° 0 mm 2 mps 719 mmHg 78%
01:00 +25°C° 0 mm 1 mps 719 mmHg 78%
02:00 +24°C° 0 mm 1 mps 719 mmHg 79%
03:00 +24°C° 0 mm 1 mps 719 mmHg 79%
04:00 +24°C° 0 mm 1 mps 719 mmHg 79%
05:00 +25°C° 0 mm 1 mps 719 mmHg 77%
06:00 +25°C° 0 mm 1 mps 719 mmHg 74%
07:00 +26°C° 0 mm 1 mps 720 mmHg 72%
08:00 +28°C° 0.1 mm 1 mps 720 mmHg 62%
09:00 +31°C° 0.1 mm 1 mps 721 mmHg 52%
10:00 +34°C° 0.1 mm 1 mps 722 mmHg 43%
11:00 +34°C° 0.2 mm 1 mps 721 mmHg 42%
12:00 +34°C° 0.2 mm 1 mps 720 mmHg 42%
13:00 +35°C° 0.2 mm 2 mps 719 mmHg 41%
14:00 +34°C° 0.4 mm 2 mps 719 mmHg 46%
15:00 +33°C° 0.4 mm 3 mps 718 mmHg 50%
16:00 +32°C° 0.4 mm 4 mps 718 mmHg 54%
17:00 +30°C° 0.1 mm 3 mps 718 mmHg 60%
18:00 +28°C° 0.1 mm 3 mps 718 mmHg 66%
19:00 +27°C° 0.1 mm 2 mps 719 mmHg 73%
20:00 +26°C° 0 mm 2 mps 719 mmHg 75%
21:00 +26°C° 0 mm 2 mps 719 mmHg 77%
22:00 +25°C° 0 mm 2 mps 720 mmHg 80%
23:00 +25°C° 0.1 mm 1 mps 720 mmHg 80%
Mostrar más

Necesitamos Su Consentimiento

Meteoprog y nuestros Proveedores de Servicios pueden almacenar y acceder a sus datos personales como cookies, identificadores de dispositivo u otras tecnologías similares de su dispositivo y procesar dichos datos para personalizar contenido y anuncios, además de ofrecer funciones de redes sociales y analizar el tráfico.

  • Almacenar y/o acceder a información en su dispositivo

    Se puede almacenar o acceder a cookies, identificadores de dispositivo u otra información de su dispositivo para los fines anteriormente indicados.

  • Anuncios y contenido personalizados, medición de anuncios y contenido, percepciones del público, y desarrollo de productos

    Los anuncios y el contenido pueden personalizarse en base a su perfil. Se pueden añadir más datos para personalizar mejor los anuncios y contenidos. Se puede medir el rendimiento de los anuncios y contenidos. Se puede obtener la percepción sobre el público que ha visto los anuncios y contenidos. Dichos datos pueden usarse para desarrollar o mejorar la experiencia del usuario, sistemas y software.

Al hacer clic en ‘Estoy De Acuerdo’ usted permitirá el uso de las cookies, identificadores de dispositivo, balizas web u otras tecnologías similares indicadas. Su configuración puede cambiarse desde el navegador de su dispositivo.

Para ciertos fines, los intereses legítimos pueden ser considerados por encima del consentimiento. Puede leer más sobre ello en nuestra Política de Privacidad y Cookies.